Location: Ingoldesthorpe
(52.8667°N, 0.5167°E)
Time: 20:05:47
(UTC+00:00)

USA 234 - Pass Details

Date: 19 May 2025
Orbit: 1097 x 1111 km, 123.0° (Epoch: 19 June)

Event Time Altitude Azimuth Distance (km) Brightness Sun altitude
Rises 20:48:25 0° 59° (ENE) 3,926 6.0 -6.8°
Reaches altitude 10° 20:51:01 10° 66° (ENE) 2,968 5.4 -7.1°
Maximum altitude 20:57:20 48° 139° (SE) 1,409 3.5 -7.7°
Drops below altitude 10° 21:03:38 10° 213° (SSW) 2,965 5.4 -8.3°
Sets 21:06:13 0° 219° (SW) 3,922 6.0 -8.6°
